GLD1386 SBBV-TGPY

Flight info

Callsign GLD1386
Flight time 1h 28m
Altitude 35000
Route ANLOL DCT ILNER DCT LOLER DCT KUMIX DCT TOBLA DCT ISAKU DCT POS DCT DUKLA DCT IMORO
Aircraft B738/M-SDE2E3FGHIRWXY/LB1

Departure

Time 2026-04-30 01:08
Airport Atlas Brasil Cantanhede International Airport (SBBV)

Arrival

Time 2026-04-30 02:36
Airport Maurice Bishop International Airport (TGPY)
Time Latitude Longitude Altitude Speed Heading
2026-04-30 00:18 2.84212 -60.69244 281 ft 0 kts 152°
2026-04-30 00:54 2.84225 -60.69250 281 ft 2 kts 152°
2026-04-30 00:54 2.84238 -60.69257 281 ft 2 kts 163°
2026-04-30 00:54 2.84253 -60.69259 281 ft 2 kts 186°
2026-04-30 00:55 2.84267 -60.69255 281 ft 2 kts 207°
2026-04-30 00:55 2.84280 -60.69246 281 ft 2 kts 228°
2026-04-30 00:55 2.84288 -60.69231 281 ft 0 kts 245°
2026-04-30 01:00 2.84288 -60.69233 281 ft 1 kts 245°
2026-04-30 01:00 2.84283 -60.69246 281 ft 3 kts 253°
2026-04-30 01:00 2.84273 -60.69271 281 ft 4 kts 200°
2026-04-30 01:01 2.84269 -60.69249 281 ft 6 kts 39°
2026-04-30 01:01 2.84315 -60.69238 281 ft 7 kts 341°
2026-04-30 01:01 2.84320 -60.69288 281 ft 9 kts 250°
2026-04-30 01:01 2.84291 -60.69350 281 ft 10 kts 244°
2026-04-30 01:02 2.84255 -60.69423 281 ft 12 kts 243°
2026-04-30 01:02 2.84213 -60.69500 281 ft 13 kts 242°
2026-04-30 01:02 2.84167 -60.69587 281 ft 14 kts 243°
2026-04-30 01:02 2.84119 -60.69681 281 ft 16 kts 243°
2026-04-30 01:03 2.84065 -60.69786 281 ft 17 kts 243°
2026-04-30 01:03 2.84007 -60.69899 281 ft 19 kts 243°
2026-04-30 01:03 2.83955 -60.70002 281 ft 11 kts 246°
2026-04-30 01:03 2.83974 -60.70061 281 ft 1 kts 326°
2026-04-30 01:04 2.83975 -60.70062 281 ft 0 kts 326°
2026-04-30 01:05 2.83976 -60.70062 281 ft 0 kts 326°
2026-04-30 01:05 2.83985 -60.70067 281 ft 2 kts 343°
2026-04-30 01:05 2.84004 -60.70071 281 ft 3 kts 349°
2026-04-30 01:06 2.84030 -60.70073 281 ft 4 kts
2026-04-30 01:06 2.84061 -60.70072 281 ft 4 kts
2026-04-30 01:06 2.84089 -60.70058 281 ft 4 kts 45°
2026-04-30 01:06 2.84103 -60.70036 281 ft 2 kts 63°
2026-04-30 01:07 2.84156 -60.69932 281 ft 44 kts 63°
2026-04-30 01:07 2.84407 -60.69443 281 ft 111 kts 63°
2026-04-30 01:07 2.84855 -60.68562 287 ft 166 kts 63°
2026-04-30 01:07 2.85389 -60.67496 693 ft 178 kts 63°
2026-04-30 01:08 2.85938 -60.66402 1441 ft 176 kts 64°
2026-04-30 01:08 2.86496 -60.65293 1912 ft 188 kts 63°
2026-04-30 01:08 2.87137 -60.64057 2102 ft 211 kts 62°
2026-04-30 01:08 2.88217 -60.62953 2175 ft 241 kts 24°
2026-04-30 01:09 2.89900 -60.62779 2662 ft 255 kts 348°
2026-04-30 01:09 2.91623 -60.63396 3258 ft 266 kts 338°
2026-04-30 01:09 2.93343 -60.64048 3936 ft 272 kts 344°
2026-04-30 01:09 2.95194 -60.64519 4680 ft 275 kts 350°
2026-04-30 01:10 2.97062 -60.64851 5413 ft 278 kts 352°
2026-04-30 01:10 2.98977 -60.65142 6147 ft 281 kts 353°
2026-04-30 01:10 3.00903 -60.65420 6864 ft 284 kts 353°
2026-04-30 01:10 3.02861 -60.65702 7580 ft 288 kts 353°
2026-04-30 01:11 3.04844 -60.65989 8292 ft 292 kts 353°
2026-04-30 01:11 3.06825 -60.66275 9003 ft 295 kts 353°
2026-04-30 01:11 3.08873 -60.66572 9728 ft 299 kts 353°
2026-04-30 01:11 3.10950 -60.66873 10250 ft 311 kts 353°
2026-04-30 01:12 3.13165 -60.67193 10359 ft 336 kts 353°
2026-04-30 01:12 3.15530 -60.67535 10854 ft 348 kts 353°
2026-04-30 01:12 3.17931 -60.67884 11539 ft 354 kts 353°
2026-04-30 01:12 3.20363 -60.68238 12264 ft 358 kts 353°
2026-04-30 01:13 3.22835 -60.68597 12990 ft 363 kts 353°
2026-04-30 01:13 3.25326 -60.68959 13717 ft 367 kts 353°
2026-04-30 01:13 3.27877 -60.69329 14455 ft 371 kts 353°
2026-04-30 01:13 3.30426 -60.69700 15176 ft 375 kts 353°
2026-04-30 01:14 3.32995 -60.70073 15888 ft 379 kts 352°
2026-04-30 01:14 3.35600 -60.70451 16582 ft 383 kts 352°
2026-04-30 01:14 3.38243 -60.70834 17262 ft 388 kts 352°
2026-04-30 01:14 3.40941 -60.71226 17938 ft 391 kts 352°
2026-04-30 01:15 3.43602 -60.71612 18600 ft 395 kts 352°
2026-04-30 01:15 3.46326 -60.72008 19252 ft 399 kts 352°
2026-04-30 01:15 3.49071 -60.72407 19888 ft 403 kts 352°
2026-04-30 01:15 3.51857 -60.72812 20513 ft 406 kts 352°
2026-04-30 01:16 3.54654 -60.73216 21118 ft 410 kts 352°
2026-04-30 01:16 3.57457 -60.73608 21698 ft 414 kts 352°
2026-04-30 01:16 3.60294 -60.73988 22267 ft 417 kts 352°
2026-04-30 01:16 3.63194 -60.74364 22830 ft 420 kts 352°
2026-04-30 01:17 3.66106 -60.74737 23381 ft 424 kts 352°
2026-04-30 01:17 3.69026 -60.75113 23918 ft 427 kts 352°
2026-04-30 01:17 3.71960 -60.75497 24448 ft 430 kts 352°
2026-04-30 01:17 3.74924 -60.75896 24967 ft 433 kts 352°
2026-04-30 01:18 3.77904 -60.76310 25476 ft 436 kts 351°
2026-04-30 01:18 3.80927 -60.76744 25975 ft 439 kts 351°
2026-04-30 01:18 3.83950 -60.77192 26460 ft 442 kts 351°
2026-04-30 01:18 3.86976 -60.77654 26931 ft 445 kts 351°
2026-04-30 01:19 3.90047 -60.78042 27388 ft 448 kts 353°
2026-04-30 01:19 3.93136 -60.78371 27837 ft 451 kts 353°
2026-04-30 01:19 3.96239 -60.78698 28271 ft 453 kts 353°
2026-04-30 01:19 3.99361 -60.79028 28694 ft 456 kts 353°
2026-04-30 01:20 4.02540 -60.79364 29109 ft 459 kts 353°
2026-04-30 01:20 4.05698 -60.79691 29511 ft 461 kts 353°
2026-04-30 01:20 4.08890 -60.80012 29902 ft 463 kts 353°
2026-04-30 01:20 4.12078 -60.80319 30279 ft 466 kts 353°
2026-04-30 01:21 4.15250 -60.80608 30700 ft 466 kts 354°
2026-04-30 01:21 4.18484 -60.80890 31190 ft 465 kts 354°
2026-04-30 01:21 4.21707 -60.81172 31667 ft 464 kts 354°
2026-04-30 01:21 4.24886 -60.81453 32136 ft 462 kts 354°
2026-04-30 01:22 4.28053 -60.81736 32588 ft 461 kts 353°
2026-04-30 01:22 4.31231 -60.82023 33025 ft 459 kts 353°
2026-04-30 01:22 4.34420 -60.82313 33449 ft 458 kts 353°
2026-04-30 01:22 4.37580 -60.82601 33853 ft 456 kts 353°
2026-04-30 01:23 4.40684 -60.82885 34229 ft 455 kts 353°
2026-04-30 01:23 4.43859 -60.83176 34587 ft 454 kts 353°
2026-04-30 01:23 4.46947 -60.83460 34865 ft 454 kts 353°
2026-04-30 01:23 4.50137 -60.83754 34883 ft 457 kts 353°
2026-04-30 01:24 4.56377 -60.84328 34886 ft 452 kts 353°
2026-04-30 01:24 4.62624 -60.84905 34885 ft 451 kts 353°
2026-04-30 01:25 4.68553 -60.85453 34885 ft 453 kts 353°
2026-04-30 01:25 4.74798 -60.86029 34885 ft 452 kts 353°
2026-04-30 01:26 4.80989 -60.86602 34885 ft 452 kts 353°
2026-04-30 01:26 4.87253 -60.87181 34885 ft 452 kts 353°
2026-04-30 01:27 4.93455 -60.87754 34885 ft 452 kts 353°
2026-04-30 01:27 4.99705 -60.88332 34885 ft 452 kts 353°
2026-04-30 01:28 5.05929 -60.88908 34885 ft 453 kts 353°
2026-04-30 01:28 5.12181 -60.89487 34885 ft 454 kts 352°
2026-04-30 01:29 5.18338 -60.90057 34885 ft 454 kts 352°
2026-04-30 01:29 5.24629 -60.90639 34885 ft 454 kts 352°
2026-04-30 01:30 5.30848 -60.91215 34885 ft 454 kts 352°
2026-04-30 01:30 5.37066 -60.91790 34885 ft 454 kts 352°
2026-04-30 01:31 5.43217 -60.92556 34885 ft 452 kts 347°
2026-04-30 01:31 5.49364 -60.93728 34886 ft 452 kts 347°
2026-04-30 01:32 5.55499 -60.94914 34886 ft 452 kts 347°
2026-04-30 01:32 5.61613 -60.96090 34885 ft 452 kts 347°
2026-04-30 01:33 5.67751 -60.97266 34895 ft 451 kts 347°
2026-04-30 01:33 5.73919 -60.98446 34904 ft 451 kts 347°
2026-04-30 01:34 5.80036 -60.99616 34909 ft 450 kts 347°
2026-04-30 01:34 5.86165 -61.00786 34909 ft 450 kts 347°
2026-04-30 01:35 5.92301 -61.01958 34911 ft 450 kts 347°
2026-04-30 01:35 5.98422 -61.03128 34912 ft 449 kts 347°
2026-04-30 01:36 6.04549 -61.04298 34912 ft 449 kts 347°
2026-04-30 01:36 6.10645 -61.05463 34912 ft 448 kts 347°
2026-04-30 01:37 6.16758 -61.06632 34912 ft 448 kts 347°
2026-04-30 01:37 6.22857 -61.07798 34912 ft 448 kts 347°
2026-04-30 01:38 6.28830 -61.08940 34912 ft 447 kts 347°
2026-04-30 01:38 6.35005 -61.10121 34912 ft 447 kts 347°
2026-04-30 01:39 6.41124 -61.11292 34912 ft 447 kts 347°
2026-04-30 01:39 6.47205 -61.12455 34912 ft 447 kts 347°
2026-04-30 01:40 6.53269 -61.13616 34912 ft 446 kts 347°
2026-04-30 01:40 6.59339 -61.14778 34912 ft 446 kts 347°
2026-04-30 01:41 6.65407 -61.15940 34912 ft 446 kts 348°
2026-04-30 01:41 6.71464 -61.17100 34912 ft 446 kts 348°
2026-04-30 01:42 6.77537 -61.18264 34912 ft 445 kts 348°
2026-04-30 01:42 6.83579 -61.19421 34912 ft 445 kts 348°
2026-04-30 01:43 6.89592 -61.20574 34912 ft 445 kts 348°
2026-04-30 01:43 6.95641 -61.21734 34912 ft 445 kts 348°
2026-04-30 01:44 7.01715 -61.22899 34912 ft 445 kts 348°
2026-04-30 01:44 7.07779 -61.24062 34912 ft 445 kts 348°
2026-04-30 01:45 7.13853 -61.25227 34912 ft 445 kts 348°
2026-04-30 01:45 7.19920 -61.26392 34912 ft 445 kts 348°
2026-04-30 01:46 7.25966 -61.27553 34914 ft 445 kts 348°
2026-04-30 01:46 7.32034 -61.28718 34918 ft 445 kts 348°
2026-04-30 01:47 7.38083 -61.29880 34923 ft 445 kts 348°
2026-04-30 01:47 7.44125 -61.31041 34930 ft 445 kts 348°
2026-04-30 01:48 7.50193 -61.32207 34936 ft 445 kts 348°
2026-04-30 01:48 7.56306 -61.33382 34939 ft 445 kts 348°
2026-04-30 01:49 7.62350 -61.34545 34939 ft 445 kts 348°
2026-04-30 01:49 7.68407 -61.35710 34939 ft 445 kts 348°
2026-04-30 01:50 7.74452 -61.36873 34939 ft 445 kts 348°
2026-04-30 01:50 7.80515 -61.38040 34939 ft 445 kts 348°
2026-04-30 01:51 7.86613 -61.39214 34939 ft 445 kts 348°
2026-04-30 01:51 7.92680 -61.40383 34939 ft 445 kts 348°
2026-04-30 01:52 7.98768 -61.41555 34939 ft 445 kts 348°
2026-04-30 01:52 8.04797 -61.42662 34937 ft 446 kts 351°
2026-04-30 01:53 8.10988 -61.43181 34939 ft 446 kts 356°
2026-04-30 01:53 8.17176 -61.43527 34939 ft 446 kts 356°
2026-04-30 01:54 8.23327 -61.43863 34939 ft 446 kts 356°
2026-04-30 01:54 8.29508 -61.44200 34939 ft 446 kts 356°
2026-04-30 01:55 8.35709 -61.44538 34939 ft 446 kts 356°
2026-04-30 01:55 8.41894 -61.44874 34939 ft 446 kts 356°
2026-04-30 01:56 8.48066 -61.45210 34939 ft 446 kts 356°
2026-04-30 01:56 8.54219 -61.45544 34939 ft 446 kts 356°
2026-04-30 01:57 8.60413 -61.45881 34939 ft 446 kts 356°
2026-04-30 01:57 8.66590 -61.45949 34940 ft 447 kts
2026-04-30 01:58 8.72781 -61.45708 34939 ft 447 kts
2026-04-30 01:58 8.78951 -61.45464 34939 ft 447 kts
2026-04-30 01:59 8.88233 -61.45110 34939 ft 447 kts
2026-04-30 02:00 8.94424 -61.44878 34939 ft 447 kts
2026-04-30 02:00 9.00588 -61.44649 34939 ft 444 kts
2026-04-30 02:01 9.06656 -61.44450 34938 ft 431 kts
2026-04-30 02:01 9.12608 -61.44341 34940 ft 427 kts
2026-04-30 02:02 9.18543 -61.44220 34939 ft 431 kts
2026-04-30 02:02 9.24516 -61.43949 34938 ft 430 kts
2026-04-30 02:03 9.30481 -61.43641 34939 ft 429 kts
2026-04-30 02:03 9.36417 -61.43374 34939 ft 430 kts
2026-04-30 02:04 9.42361 -61.43130 34939 ft 430 kts
2026-04-30 02:04 9.48346 -61.42896 34939 ft 430 kts
2026-04-30 02:05 9.54271 -61.42671 34939 ft 430 kts
2026-04-30 02:05 9.60245 -61.42446 34939 ft 430 kts
2026-04-30 02:06 9.66208 -61.42224 34939 ft 430 kts
2026-04-30 02:06 9.72167 -61.42003 34939 ft 430 kts
2026-04-30 02:07 9.78107 -61.41782 34939 ft 430 kts
2026-04-30 02:07 9.84080 -61.41560 34939 ft 430 kts
2026-04-30 02:08 9.90020 -61.41340 34939 ft 430 kts
2026-04-30 02:08 9.95999 -61.41118 34939 ft 430 kts
2026-04-30 02:09 10.01926 -61.40899 34939 ft 430 kts
2026-04-30 02:09 10.07918 -61.40676 34939 ft 430 kts
2026-04-30 02:10 10.13878 -61.40455 34939 ft 430 kts
2026-04-30 02:10 10.19798 -61.40235 34939 ft 430 kts
2026-04-30 02:11 10.25738 -61.40014 34939 ft 430 kts
2026-04-30 02:11 10.31719 -61.39792 34939 ft 430 kts
2026-04-30 02:12 10.37675 -61.39570 34933 ft 429 kts
2026-04-30 02:12 10.40599 -61.39469 34602 ft 422 kts
2026-04-30 02:12 10.43480 -61.39478 33834 ft 419 kts 359°
2026-04-30 02:12 10.46359 -61.39664 33127 ft 417 kts 355°
2026-04-30 02:13 10.49237 -61.40147 32460 ft 425 kts 350°
2026-04-30 02:13 10.52152 -61.40796 31736 ft 429 kts 349°
2026-04-30 02:13 10.55002 -61.41475 31052 ft 422 kts 348°
2026-04-30 02:13 10.57816 -61.42161 30585 ft 415 kts 348°
2026-04-30 02:14 10.60638 -61.42857 30041 ft 424 kts 348°
2026-04-30 02:14 10.63490 -61.43568 29465 ft 418 kts 348°
2026-04-30 02:14 10.66250 -61.44262 28918 ft 409 kts 348°
2026-04-30 02:14 10.69003 -61.44957 28387 ft 409 kts 348°
2026-04-30 02:15 10.71753 -61.45651 27840 ft 412 kts 348°
2026-04-30 02:15 10.74511 -61.46351 27279 ft 403 kts 348°
2026-04-30 02:15 10.77180 -61.47030 26773 ft 396 kts 348°
2026-04-30 02:15 10.79875 -61.47714 26255 ft 404 kts 348°
2026-04-30 02:16 10.82587 -61.48405 25691 ft 398 kts 348°
2026-04-30 02:16 10.85224 -61.49078 25159 ft 389 kts 348°
2026-04-30 02:16 10.87831 -61.49742 24645 ft 392 kts 348°
2026-04-30 02:16 10.90487 -61.50419 24101 ft 392 kts 348°
2026-04-30 02:17 10.93081 -61.51082 23566 ft 383 kts 348°
2026-04-30 02:17 10.95616 -61.51730 23050 ft 376 kts 348°
2026-04-30 02:17 10.98185 -61.52385 22540 ft 382 kts 348°
2026-04-30 02:17 11.00698 -61.53027 22009 ft 374 kts 348°
2026-04-30 02:18 11.03205 -61.53669 21495 ft 365 kts 348°
2026-04-30 02:18 11.05666 -61.54297 21004 ft 370 kts 348°
2026-04-30 02:18 11.08166 -61.54935 20476 ft 367 kts 348°
2026-04-30 02:18 11.10590 -61.55556 19964 ft 358 kts 348°
2026-04-30 02:19 11.13007 -61.56173 19481 ft 363 kts 348°
2026-04-30 02:19 11.15453 -61.56798 18961 ft 360 kts 348°
2026-04-30 02:19 11.17835 -61.57408 18459 ft 352 kts 348°
2026-04-30 02:19 11.20204 -61.58014 17985 ft 357 kts 348°
2026-04-30 02:20 11.22589 -61.58624 17469 ft 353 kts 347°
2026-04-30 02:20 11.24952 -61.59229 16965 ft 345 kts 347°
2026-04-30 02:20 11.27282 -61.59825 16492 ft 350 kts 347°
2026-04-30 02:20 11.29631 -61.60426 15979 ft 346 kts 347°
2026-04-30 02:21 11.31934 -61.61016 15487 ft 338 kts 347°
2026-04-30 02:21 11.34242 -61.61607 15015 ft 345 kts 347°
2026-04-30 02:21 11.36550 -61.62198 14504 ft 338 kts 347°
2026-04-30 02:21 11.38793 -61.62772 14021 ft 332 kts 347°
2026-04-30 02:22 11.41048 -61.63346 13565 ft 338 kts 347°
2026-04-30 02:22 11.43310 -61.63921 13059 ft 331 kts 347°
2026-04-30 02:22 11.45495 -61.64478 12595 ft 327 kts 347°
2026-04-30 02:22 11.47711 -61.65042 12130 ft 331 kts 347°
2026-04-30 02:23 11.49911 -61.65622 11634 ft 323 kts 343°
2026-04-30 02:23 11.51948 -61.66535 11175 ft 326 kts 329°
2026-04-30 02:23 11.53811 -61.67835 10700 ft 324 kts 324°
2026-04-30 02:23 11.55589 -61.69236 10239 ft 316 kts 322°
2026-04-30 02:24 11.57249 -61.70574 10064 ft 298 kts 322°
2026-04-30 02:24 11.58844 -61.71858 10008 ft 293 kts 322°
2026-04-30 02:24 11.60435 -61.73134 9928 ft 287 kts 323°
2026-04-30 02:24 11.61969 -61.74360 9620 ft 278 kts 323°
2026-04-30 02:25 11.63495 -61.75579 9230 ft 279 kts 323°
2026-04-30 02:25 11.65021 -61.76795 8877 ft 279 kts 323°
2026-04-30 02:25 11.66522 -61.77993 8521 ft 272 kts 323°
2026-04-30 02:25 11.68034 -61.79198 8198 ft 279 kts 323°
2026-04-30 02:26 11.69553 -61.80409 7828 ft 273 kts 323°
2026-04-30 02:26 11.71042 -61.81598 7495 ft 273 kts 323°
2026-04-30 02:26 11.72540 -61.82792 7157 ft 275 kts 323°
2026-04-30 02:26 11.74025 -61.83978 6798 ft 267 kts 323°
2026-04-30 02:27 11.75491 -61.85148 6485 ft 274 kts 323°
2026-04-30 02:27 11.76983 -61.86338 6124 ft 269 kts 323°
2026-04-30 02:27 11.78440 -61.87501 5793 ft 268 kts 323°
2026-04-30 02:27 11.79908 -61.88673 5458 ft 269 kts 323°
2026-04-30 02:28 11.81369 -61.89840 5104 ft 262 kts 323°
2026-04-30 02:28 11.82812 -61.90992 4796 ft 269 kts 323°
2026-04-30 02:28 11.84276 -61.92161 4433 ft 263 kts 323°
2026-04-30 02:28 11.85710 -61.93307 4115 ft 265 kts 323°
2026-04-30 02:29 11.87143 -61.94452 3824 ft 259 kts 323°
2026-04-30 02:29 11.88533 -61.95564 3619 ft 247 kts 323°
2026-04-30 02:29 11.89887 -61.96540 3443 ft 232 kts 335°
2026-04-30 02:29 11.91351 -61.97034 3331 ft 223 kts 356°
2026-04-30 02:30 11.92926 -61.97127 3070 ft 228 kts
2026-04-30 02:30 11.94496 -61.97113 2765 ft 220 kts
2026-04-30 02:30 11.95981 -61.97087 2546 ft 208 kts
2026-04-30 02:30 11.97371 -61.97071 2351 ft 194 kts
2026-04-30 02:31 11.98666 -61.97005 2107 ft 180 kts 15°
2026-04-30 02:31 11.99758 -61.96522 2015 ft 166 kts 43°
2026-04-30 02:31 12.00423 -61.95604 1997 ft 159 kts 72°
2026-04-30 02:31 12.00617 -61.94492 2006 ft 160 kts 91°
2026-04-30 02:32 12.00556 -61.93362 1988 ft 158 kts 96°
2026-04-30 02:32 12.00487 -61.92306 2011 ft 142 kts 94°
2026-04-30 02:32 12.00464 -61.91298 2010 ft 143 kts 92°
2026-04-30 02:32 12.00460 -61.90288 1975 ft 140 kts 92°
2026-04-30 02:33 12.00461 -61.89335 1657 ft 132 kts 92°
2026-04-30 02:33 12.00453 -61.88390 1721 ft 134 kts 92°
2026-04-30 02:33 12.00445 -61.87391 1730 ft 153 kts 92°
2026-04-30 02:33 12.00443 -61.86311 1201 ft 146 kts 92°
2026-04-30 02:34 12.00441 -61.85336 1081 ft 136 kts 92°
2026-04-30 02:34 12.00435 -61.84329 991 ft 147 kts 92°
2026-04-30 02:34 12.00430 -61.83318 606 ft 140 kts 92°
2026-04-30 02:34 12.00412 -61.82344 449 ft 135 kts 93°
2026-04-30 02:35 12.00405 -61.81361 406 ft 141 kts 92°
2026-04-30 02:35 12.00429 -61.80359 190 ft 142 kts 93°
2026-04-30 02:35 12.00424 -61.79369 63 ft 134 kts 93°
2026-04-30 02:35 12.00405 -61.78548 51 ft 88 kts 90°
2026-04-30 02:36 12.00405 -61.78159 50 ft 32 kts 90°
2026-04-30 02:36 12.00403 -61.77967 50 ft 23 kts 92°
2026-04-30 02:36 12.00399 -61.77812 50 ft 20 kts 88°
2026-04-30 02:36 12.00400 -61.77668 50 ft 19 kts 90°
2026-04-30 02:37 12.00401 -61.77534 50 ft 18 kts 90°
2026-04-30 02:37 12.00423 -61.77413 50 ft 16 kts 54°
2026-04-30 02:37 12.00386 -61.77397 50 ft 11 kts 261°
2026-04-30 02:37 12.00393 -61.77477 50 ft 11 kts 276°
2026-04-30 02:38 12.00402 -61.77562 50 ft 13 kts 276°
2026-04-30 02:38 12.00405 -61.77657 50 ft 14 kts 271°
2026-04-30 02:38 12.00404 -61.77763 50 ft 16 kts 268°
2026-04-30 02:38 12.00403 -61.77889 50 ft 20 kts 270°
2026-04-30 02:39 12.00403 -61.78048 50 ft 24 kts 270°
2026-04-30 02:39 12.00403 -61.78231 50 ft 27 kts 270°
2026-04-30 02:39 12.00403 -61.78445 50 ft 31 kts 271°
2026-04-30 02:39 12.00407 -61.78568 50 ft 14 kts 284°
2026-04-30 02:40 12.00497 -61.78596 50 ft 14 kts
2026-04-30 02:40 12.00570 -61.78580 50 ft 7 kts 46°
2026-04-30 02:40 12.00587 -61.78550 50 ft 3 kts 63°
2026-04-30 02:40 12.00612 -61.78532 50 ft 5 kts
2026-04-30 02:41 12.00654 -61.78533 50 ft 1 kts 359°